This is the latest recevied weather packets stored in our database for station/object KD7JB. If no packets are shown the sender has not sent any weather packets the latest 10 day(s).
| Time | Temp. | Humidity | Pressure | Rain* | Wind** | Luminosity | Snow |
|---|---|---|---|---|---|---|---|
| 1777745361 | 16.11° C | 49% | 1179.2 hPa | 0 mm | - | 654 W/m² | - |
| 1777745058 | 16.67° C | 47% | 1179.4 hPa | 0 mm | - | 651 W/m² | - |
| 1777744754 | 16.67° C | 48% | 1179.3 hPa | 0 mm | - | 661 W/m² | - |
| 1777744448 | 16.67° C | 47% | 1179.2 hPa | 0 mm | - | 652 W/m² | - |
| 1777744145 | 16.11° C | 46% | 1179.1 hPa | 0 mm | - | 642 W/m² | - |
| 1777743842 | 16.11° C | 46% | 1179.1 hPa | 0 mm | - | 642 W/m² | - |
| 1777743538 | 15.56° C | 48% | 1179.1 hPa | 0 mm | - | 600 W/m² | - |
| 1777743235 | 15.56° C | 47% | 1179.2 hPa | 0 mm | - | 496 W/m² | - |
| 1777742934 | 15.56° C | 47% | 1179.2 hPa | 0 mm | - | 514 W/m² | - |
| 1777742630 | 15.56° C | 46% | 1179.2 hPa | 0 mm | - | 575 W/m² | - |
| 1777742326 | 16.11° C | 46% | 1179 hPa | 0 mm | - | 573 W/m² | - |
| 1777742023 | 15.56° C | 45% | 1179 hPa | 0 mm | - | 585 W/m² | - |
| 1777741720 | 15.56° C | 46% | 1179 hPa | 0 mm | - | 567 W/m² | - |
| 1777741416 | 15.56° C | 46% | 1179 hPa | 0 mm | - | 535 W/m² | - |
| 1777741112 | 15.56° C | 47% | 1178.9 hPa | 0 mm | - | 543 W/m² | - |
| 1777740810 | 15.56° C | 47% | 1178.7 hPa | 0 mm | - | 548 W/m² | - |
| 1777740507 | 15° C | 48% | 1178.8 hPa | 0 mm | - | 535 W/m² | - |
| 1777740204 | 15° C | 49% | 1178.9 hPa | 0 mm | - | 503 W/m² | - |
| 1777739900 | 15° C | 49% | 1178.7 hPa | 0 mm | - | 427 W/m² | - |
| 1777739596 | 14.44° C | 50% | 1178.9 hPa | 0 mm | - | 238 W/m² | - |
| 1777739294 | 14.44° C | 49% | 1179 hPa | 0 mm | - | 283 W/m² | - |
| 1777738990 | 14.44° C | 50% | 1178.9 hPa | 0 mm | - | 201 W/m² | - |
| 1777738687 | 15° C | 49% | 1178.8 hPa | 0 mm | - | 222 W/m² | - |
| 1777738383 | 15° C | 49% | 1178.9 hPa | 0 mm | - | 247 W/m² | - |
| 1777738081 | 14.44° C | 48% | 1178.8 hPa | 0 mm | - | 262 W/m² | - |
* Rain latest hour (hover to see other rain measurements)
** Current wind speed in m/s (hover to see current wind gust speed)